FENGYUN 1C DEB, 30608

Orbit data source: Space-Track

FENGYUN 1C DEB, 30608 is space debris in SSO originally from a launch on Mon, 10 May 1999 UTC launched from the Taiyaun Space Center, China (TSC). Fengyun 1C debris stems from the Chinese weather satellite Fengyun-1C, which was intentionally destroyed by a Chinese anti-satellite missile in 2007. This event dramatically increased the amount of space debris, with thousands of trackable fragments posing hazards to satellites and human spaceflight. The Fengyun 1C debris cloud has become a focal point in discussions about space sustainability and the need for international regulations to prevent the creation of new debris.

Loading next visibility...
Identifier
30608, 1999-025AMP
Orbit
SSO
Country
Flag of CNCN / PRC
Related business
Manufacturer
Unknown
Mission
Spacecraft
Bus & Motor
Unknown
Mass
Unknown
Launch date (UTC)
1999-05-10 (27 years ago)
Launch vehicle
Unknown
Launch site
Taiyaun Space Center, China (TSC)
Object type
Payload
Rocket body
Debris
Shape & HBR
Unknown shape, 0.3 m
Radar Cross Section
Medium (>0.1 m² and <1 m²)

Expand to show TLE details & history
Last TLE update: 16 hours ago

TLE from 16 hours ago
0 FENGYUN 1C DEB
1 30608U 99025AMP 26104.63889593  .00001473  00000-0  59692-3 0  9995
2 30608  98.6913 172.0246 0015579 174.7426 314.0707 14.29174887991940
Epoch: 2026-04-14T15:20Z
TLE epoch observation values (Epoch: 2026-04-14T15:20:00.608Z)
Latitude
50.60139°
Longitude
-70.12194°
Altitude
794.795 km
Speed
7.465 km/s
True Right ascension
00h 10m 46s
True Declination
50° 26' 01"
Sunlit
Object was in daylight at epoch
Visualization orbit readout
Latitude
Unknown
Longitude
Unknown
Altitude
Unknown
Speed
Unknown
Apparent Right ascension
Unknown
Apparent Declination
Unknown
Sunlit
N/A
Visualization observer readout
Local Sidereal Time
14:18:30
Azimuth
Unknown
Elevation
Unknown
Doppler factor
Unknown
Orbital elements
Apogee altitude
802.805 km
Perigee altitude
780.466 km
Semi-major axis
7,169.773 km
Eccentricity
0.00156
Inclination
98.6913°
RAAN
172.0246°
Arg. of periapsis
174.7426°
True anomaly
313.94226°
Mean anomaly
314.0707°
Eccentric anomaly
314.0065°
Mean motion
3.57507 °/min
Orbital period
100.7 mins
BSTAR
0.00059692
Loading maneuver chart data...
Computing Atmospheric mass density...
Loading historical data...
Loading historical data...
Loading historical data...
Loading historical data...
Loading historical data...
Loading historical data...
Loading historical data...

Documentation

Showing up to 5 results
|